"Pseudo-MPEC" for C28WEC2

Created 2020 Feb 27 20:07:09 UT using Find_Orb

Click here for an explanation of pseudo-MPECs

 
 Astrometry: 
     C28WEC2  C2020 02 26.16729 09 36 53.67 +16 06 24.0    ~2Q4q 20.0 GVNEOCPG96
     C28WEC2  C2020 02 26.17288 09 36 45.83 +16 08 05.7    ~2Q4q       VNEOCPG96
     C28WEC2  C2020 02 26.18410 09 36 29.87 +16 11 30.1    ~2Q4q 20.0 GVNEOCPG96
     C28WEC2  C2020 02 26.25930 09 34 45.37 +16 33 20.6    ~2Q6b 19.9 GVNEOCPG96
     C28WEC2  C2020 02 26.26017 09 34 44.17 +16 33 35.0    ~2Q6b 19.7 GVNEOCPG96
     C28WEC2  C2020 02 26.26104 09 34 42.99 +16 33 49.7    ~2Q6b 20.1 GVNEOCPG96
     C28WEC2  C2020 02 26.26191 09 34 41.78 +16 34 04.2    ~2Q6b 20.4 GVNEOCPG96
     C28WEC2  C2020 02 26.76552 09 26 03.95 +18 30 16.1    ~2QJ7 20.3 VVNEOCP033
     C28WEC2  C2020 02 26.76644 09 26 03.08 +18 30 27.7    ~2QJ7 20.3 VVNEOCP033
     C28WEC2  C2020 02 26.76735 09 26 02.22 +18 30 38.7    ~2QJ7 20.4 VVNEOCP033
     C28WEC2 KC2020 02 26)!hr+SA0'G]0,(Komh5v_gEc/Y=btFccop9YwapaGpis?];/3TPXZ84
     C28WEC2 KC2020 02 26q_^*#F%IcBB285Astrometryljvb+x3Oq,fforedacted;yAFW8+Z84
     C28WEC2 KC2020 02 26oCbo2XD.k\C7tS2r@aC'M/vLPB)C(RfjGhVY2JH;Ojoabi_pOnG!Z84
     C28WEC2 KC2020 02 26yC^BK6bclickp7*LpEua6GQ_bmOd,y9FnSj,Oov7e3Al^77Y0RoWZ84
     C28WEC2 KC2020 02 26]/@P^^\7R6^FDN-sC]1cq,U/xlh.xhere7?[F91^xGvP74P[]U_AJ04
     C28WEC2 KC2020 02 26@HlLWU$IC2G4for,\5EmsCnIM,7$gS;Bm6explanation;\Cs7GvJ04
     C28WEC2 KC2020 02 2644xI@Z8e(ecv56\n$ZdM=B7`o(-l=AD@;XX'`wD724M9)QMmRGoBJ04
     C28WEC2  C2020 02 27.17676 09 20 31.69 +19 43 44.6    ~2R4b 21.9 GVNEOCPI52
     C28WEC2  C2020 02 27.17843 09 20 30.40 +19 44 00.7    ~2R4b 20.9 GVNEOCPI52
     C28WEC2  C2020 02 27.18011 09 20 29.01 +19 44 16.3    ~2R4b 21.0 GVNEOCPI52
     C28WEC2  C2020 02 27.18178 09 20 27.70 +19 44 32.2    ~2R4b 20.6 GVNEOCPI52

Station data:
(033) Karl Schwarzschild Observatory, Tautenburg  (N50.980140 E11.711240)
   Germany. 1.3-m Schmidt.
(G96) Mt. Lemmon Survey  (N32.442754 W110.788720)  US/Arizona.  Observers T.
   A. Pruyne, B. M. Africano, E. J. Christensen, G. A. Farneth, D. C. Fuls,
   A. R. Gibbs, A. D. Grauer, H. Gröller, J. A. Johnson, R. A. Kowalski, S.
   M. Larson, G. J. Leonard, D. Rankin, R. L. Seaman, F. C. Shelly. 1.5-m
   reflector + 10K CCD.
(I52) Steward Observatory, Mt. Lemmon Station  (N32.442547 W110.788920)
   US/Arizona.  Observers T. A. Pruyne, B. M. Africano, E. J. Christensen, G.
   A. Farneth, D. C. Fuls, A. R. Gibbs, A. D. Grauer, H. Gröller, J. A.
   Johnson, R. A. Kowalski, S. M. Larson, G. J. Leonard, D. Rankin, R. L.
   Seaman, F. C. Shelly. 1.0-m reflector + CCD.
(J04) ESA Optical Ground Station, Tenerife  (N28.300924 W16.511830)  Canary
   Islands (Spain).  Observer D. Abreu. Measurers M. Micheli, D. Koschny, E.
   Schwab, M. Busch, A. Knöfel. 1.0-m f/4.4 reflector + CCD.
(Z84) Calar Alto-Schmidt  (N37.224049 W2.548210)  Spain.

Orbital elements:  C28WEC2
   Perihelion 2019 Dec 23.357992 +/- 0.0473 TT =  8:35:30 (JD 2458840.857992)
Epoch 2020 Feb 27.0 TT = JDT 2458906.5   Earth MOID: 0.0036   Ve: 0.0744
M  88.88568054 +/- 0.06             Me: 0.0103                AutoNEOCP
n   1.35409752 +/- 9.72e-5          Peri.  216.58679 +/- 0.009
a   0.80916313 +/- 3.87e-5          Node   156.04486 +/- 0.00033
e   0.5620546 +/- 0.00059           Incl.    6.81676 +/- 0.012
P   0.73/265.85d           H 27.5   G  0.15   U  6.6  
q 0.35436922 +/- 0.000464    Q 1.26395703 +/- 0.000525
From 21 observations 2020 Feb. 26-27 (24.3 hr); mean residual 0".30
Residuals in arcseconds: 
200226 G96  .11-  .00     200226 033  .07-  .29-    200226 J04  .25+  .16-    
200226 G96  1.1+  .47-    200226 033  .09-  .10+    200226 J04  .20+  .10-    
200226 G96  .19-  .40+    200226 033  .10-  .01+    200226 J04  .32+  .26-    
200226 G96  .05-  .18+    200226 Z84  .03+  .04+    200227 I52  .57-  .00     
200226 G96  .25-  .05-    200226 Z84  .45+  .24+    200227 I52  .21+  .27+    
200226 G96  .18-  .04+    200226 Z84  .51-  .12+    200227 I52  .32-  .03-    
200226 G96  .54-  .06-    200226 Z84  .09+  .04+    200227 I52  .17+  .08+    

Ephemerides (geocentric):
Date (UTC) HH   RA              Dec         delta   r     elong  mag " sig PA
---- -- -- --  -------------   -----------  ------ ------ -----  --- ---- ---
2020 02 27 20  09 13 43.282   +21 09 38.21  .03812 1.0252 155.6 21.6 .195 138
2020 02 27 21  09 13 21.856   +21 14 06.55  .03849 1.0255 155.4 21.6 .218 138
2020 02 27 22  09 13 00.828   +21 18 29.53  .03886 1.0258 155.3 21.6 .241 137
2020 02 27 23  09 12 40.188   +21 22 47.29  .03924 1.0261 155.1 21.6 .264 137
2020 02 28 00  09 12 19.924   +21 26 59.99  .03961 1.0264 155.0 21.7 .287 137
2020 02 28 01  09 12 00.028   +21 31 07.77  .03998 1.0267 154.8 21.7 .310 136
2020 02 28 02  09 11 40.490   +21 35 10.76  .04036 1.0270 154.7 21.7 .333 136
2020 02 28 03  09 11 21.301   +21 39 09.10  .04073 1.0273 154.6 21.7 .356 136
2020 02 28 04  09 11 02.452   +21 43 02.91  .04110 1.0276 154.4 21.8 .379 135
2020 02 28 05  09 10 43.934   +21 46 52.33  .04148 1.0279 154.3 21.8 .402 135
2020 02 28 06  09 10 25.739   +21 50 37.46  .04185 1.0283 154.2 21.8 .425 135
2020 02 28 07  09 10 07.860   +21 54 18.42  .04222 1.0286 154.0 21.8 .448 135
2020 02 28 08  09 09 50.287   +21 57 55.32  .04260 1.0289 153.9 21.9 .470 135
2020 02 28 09  09 09 33.015   +22 01 28.27  .04297 1.0292 153.8 21.9 .493 134
2020 02 28 10  09 09 16.036   +22 04 57.38  .04335 1.0295 153.6 21.9 .516 134
2020 02 28 11  09 08 59.342   +22 08 22.73  .04372 1.0298 153.5 21.9 .539 134
2020 02 28 12  09 08 42.928   +22 11 44.44  .04410 1.0301 153.4 22.0 .561 134
2020 02 28 13  09 08 26.785   +22 15 02.58  .04447 1.0304 153.3 22.0 .584 134
2020 02 28 14  09 08 10.909   +22 18 17.25  .04485 1.0307 153.2 22.0 .606 134
2020 02 28 15  09 07 55.293   +22 21 28.54  .04522 1.0310 153.0 22.0 .628 134
2020 02 28 16  09 07 39.930   +22 24 36.53  .04560 1.0313 152.9 22.0 .650 134
2020 02 28 17  09 07 24.816   +22 27 41.31  .04597 1.0316 152.8 22.1 .673 134
2020 02 28 18  09 07 09.944   +22 30 42.94  .04635 1.0319 152.7 22.1 .695 133
2020 02 28 19  09 06 55.309   +22 33 41.51  .04672 1.0323 152.6 22.1 .716 133
2020 02 28 20  09 06 40.906   +22 36 37.09  .04710 1.0326 152.5 22.1 .738 133
2020 02 28 21  09 06 26.730   +22 39 29.75  .04747 1.0329 152.3 22.2 .760 133
2020 02 28 22  09 06 12.775   +22 42 19.57  .04785 1.0332 152.2 22.2 .781 133
2020 02 28 23  09 05 59.037   +22 45 06.60  .04823 1.0335 152.1 22.2 .803 133
2020 02 29 00  09 05 45.512   +22 47 50.91  .04860 1.0338 152.0 22.2 .824 133
2020 02 29 01  09 05 32.193   +22 50 32.57  .04898 1.0341 151.9 22.2 .845 133
2020 02 29 02  09 05 19.078   +22 53 11.64  .04936 1.0344 151.8 22.3 .866 133
2020 02 29 03  09 05 06.162   +22 55 48.17  .04973 1.0347 151.7 22.3 .887 133
2020 02 29 04  09 04 53.441   +22 58 22.22  .05011 1.0350 151.6 22.3 .908 133
2020 02 29 05  09 04 40.910   +23 00 53.86  .05048 1.0353 151.5 22.3 .929 133
2020 02 29 06  09 04 28.567   +23 03 23.13  .05086 1.0356 151.4 22.3 .949 133
2020 02 29 07  09 04 16.405   +23 05 50.08  .05124 1.0359 151.3 22.4 .970 133
2020 02 29 08  09 04 04.424   +23 08 14.76  .05162 1.0362 151.2 22.4 .990 133
2020 02 29 09  09 03 52.617   +23 10 37.24  .05199 1.0365 151.1 22.4 1.01 132
2020 02 29 10  09 03 40.983   +23 12 57.54  .05237 1.0368 151.0 22.4 1.03 132
2020 02 29 11  09 03 29.517   +23 15 15.73  .05275 1.0371 150.9 22.4 1.05 132
2020 02 29 12  09 03 18.216   +23 17 31.84  .05312 1.0374 150.8 22.4 1.07 132
2020 02 29 13  09 03 07.078   +23 19 45.92  .05350 1.0377 150.7 22.5 1.09 132
2020 02 29 14  09 02 56.098   +23 21 58.01  .05388 1.0380 150.6 22.5 1.11 132
2020 02 29 15  09 02 45.274   +23 24 08.16  .05426 1.0383 150.5 22.5 1.13 132
2020 02 29 16  09 02 34.602   +23 26 16.40  .05463 1.0386 150.4 22.5 1.15 132
2020 02 29 17  09 02 24.080   +23 28 22.77  .05501 1.0389 150.3 22.5 1.17 132
2020 02 29 18  09 02 13.706   +23 30 27.32  .05539 1.0392 150.2 22.6 1.19 132
2020 02 29 19  09 02 03.475   +23 32 30.07  .05577 1.0395 150.1 22.6 1.20 132